Location: Deer Path Park
(40.5570°N, 74.8450°W)
Time: 14:12:56
(UTC-04:00)

Iridium 49 - Visible Passes

Search period start: 25 October 2014 00:00
Search period end: 03 November 2014 23:00
Orbit: 776 x 779 km, 86.4° (Epoch: 25 October)

Date Brightness Start Highest point End Pass type
(mag) Time Alt. Az. Time Alt. Az. Time Alt. Az.
25 Oct 8.4 05:22:58 10° NNE 05:27:09 24° ENE 05:31:18 10° SE visible
25 Oct 8.8 20:01:11 10° WSW 20:04:44 18° WNW 20:08:17 10° NNW visible
26 Oct 9.1 04:50:52 10° NE 04:53:17 13° ENE 04:55:41 10° E visible
26 Oct 6.0 06:29:21 10° N 06:34:33 70° W 06:39:42 10° S visible
26 Oct 7.9 19:26:17 10° SW 19:30:56 33° W 19:35:37 10° NNW visible
27 Oct 6.5 05:55:51 10° N 06:01:01 63° E 06:06:10 10° SSE visible
27 Oct 6.7 18:52:09 10° SSW 18:57:17 61° W 19:02:27 10° N visible
28 Oct 7.7 05:22:39 10° NNE 05:27:22 34° E 05:32:04 10° SE visible
28 Oct 6.0 18:18:34 10° S 18:23:45 73° E 18:28:57 10° N visible
28 Oct 9.1 20:02:51 10° W 20:05:03 13° WNW 20:07:15 10° NW visible
29 Oct 8.6 04:49:55 10° NNE 04:53:35 19° ENE 04:57:14 10° ESE visible
29 Oct 6.2 06:29:35 10° NNW 06:34:34 48° W 06:39:33 10° SSW visible
29 Oct 8.5 19:27:05 10° SW 19:31:10 23° WNW 19:35:16 10° NNW visible
30 Oct 6.0 05:55:53 10° N 06:01:07 89° W 06:06:19 10° S visible
30 Oct 7.5 18:52:32 10° SSW 18:57:25 42° W 19:02:21 10° NNW visible
31 Oct 6.9 05:22:29 10° N 05:27:33 49° E 05:32:34 10° SSE visible
31 Oct 6.3 18:18:37 10° S 18:23:49 78° W 18:29:03 10° N visible
01 Nov 8.0 04:49:26 10° NNE 04:53:50 27° E 04:58:13 10° SE visible
01 Nov 6.6 06:29:55 10° NNW 06:34:33 33° W 06:39:09 10° SSW visible
01 Nov 8.9 19:28:16 10° WSW 19:31:26 16° WNW 19:34:38 10° NW visible
02 Nov 8.8 03:17:03 10° NE 03:20:00 15° ENE 03:22:55 10° ESE visible
02 Nov 6.0 04:56:01 10° N 05:01:10 62° W 05:06:17 10° SSW visible
02 Nov 8.2 17:53:08 10° SW 17:57:37 29° W 18:02:07 10° NNW visible
03 Nov 6.2 04:22:26 10° N 04:27:40 72° E 04:32:51 10° S visible
03 Nov 7.0 17:18:51 10° SSW 17:23:55 53° W 17:29:01 10° N visible
